This is the latest recevied weather packets stored in our database for station/object DH1FR-13. If no packets are shown the sender has not sent any weather packets the latest 10 day(s).
| Time | Temp. | Humidity | Pressure | Rain* | Wind** | Luminosity | Snow |
|---|---|---|---|---|---|---|---|
| 1776924001 | 2.78° C | 93% | 1031 hPa | 0 mm | 0 m/s | - | - |
| 1776923400 | 1.11° C | 96% | 1031 hPa | 0 mm | 0 m/s | - | - |
| 1776922801 | 0° C | 97% | 1030.9 hPa | 0 mm | 0 m/s | - | - |
| 1776922201 | 0° C | 98% | 1030.9 hPa | 0 mm | 0 m/s | - | - |
| 1776921601 | -0.56° C | 98% | 1030.8 hPa | 0 mm | 0 m/s | - | - |
| 1776921000 | -1.11° C | 98% | 1030.9 hPa | 0 mm | 0 m/s | - | - |
| 1776920400 | -1.11° C | 98% | 1030.7 hPa | 0 mm | 0 m/s | - | - |
| 1776919801 | -1.11° C | 98% | 1030.7 hPa | 0 mm | 0 m/s | - | - |
| 1776919201 | -1.11° C | 97% | 1030.6 hPa | 0 mm | 0 m/s | - | - |
| 1776918601 | -1.11° C | 97% | 1030.6 hPa | 0 mm | 0 m/s | - | - |
| 1776918001 | -1.11° C | 97% | 1030.4 hPa | 0 mm | 0 m/s | - | - |
| 1776917401 | -1.11° C | 97% | 1030.2 hPa | 0 mm | 0 m/s | - | - |
| 1776916201 | -1.11° C | 97% | 1030.5 hPa | 0 mm | 0 m/s | - | - |
| 1776915601 | -1.11° C | 97% | 1030.3 hPa | 0 mm | 0 m/s | - | - |
| 1776915001 | -1.11° C | 97% | 1030.3 hPa | 0 mm | 0 m/s | - | - |
| 1776914401 | -1.11° C | 97% | 1030.3 hPa | 0 mm | 0 m/s | - | - |
| 1776913800 | -0.56° C | 96% | 1030.2 hPa | 0 mm | 0 m/s | - | - |
| 1776913201 | -0.56° C | 96% | 1030.3 hPa | 0 mm | 0 m/s | - | - |
| 1776912601 | -0.56° C | 96% | 1030.2 hPa | 0 mm | 0 m/s | - | - |
| 1776912000 | -0.56° C | 96% | 1030.5 hPa | 0 mm | 0 m/s | - | - |
| 1776911401 | -0.56° C | 96% | 1030.6 hPa | 0 mm | 0 m/s | - | - |
| 1776910801 | 0° C | 95% | 1030.5 hPa | 0 mm | 0 m/s | - | - |
| 1776910201 | 0° C | 96% | 1030.4 hPa | 0 mm | 0 m/s | - | - |
| 1776909600 | 0° C | 95% | 1030.4 hPa | 0 mm | 0 m/s | - | - |
| 1776909000 | 0° C | 95% | 1030.3 hPa | 0 mm | 0 m/s | - | - |
* Rain latest hour (hover to see other rain measurements)
** Current wind speed in m/s (hover to see current wind gust speed)